Salvador Airport, Brazil

12:58 AM -03 en Julio 23, 2018 (GMT -0300)
DEP. L. E. Magalhaes International

Tiempo Historia de SBSV - Julio, 2018

Change the Weather History Date:

Jueves, Julio 12, 2018

  Actual Average Record
Temperature  
Temperatura media 78 ° F -  
Temperatura máxima 83 ° F 79 ° F 86 ° F (1996)
Temperatura mínima 74 ° F 70 ° F 66 ° F (1996)
Cooling Degree Days 14    
Growing Degree Days 28 (Base 50)    
Moisture  
Punto de rocío 71 ° F    
Average Humidity 78    
Maximum Humidity 94    
Minimum Humidity 63    
Precipitación  
Precipitación 0.04 pul - - ()
Presión al nivel del mar  
Presión al nivel del mar 30.10 pul    
Viento  
Velocidad del viento 5 mph ()    
Velocidad máxima del viento 14 mph    
Max Gust Speed -    
Visibilidad 6.8 Millas    
Eventos      
Averages and records for this station are not official NWS values.
T = Trace of Precipitation, MM = Missing Value Source: Averaged Metar Reports

Daily Weather History Graph

Daily Weather History Graph

Search for Another Location

Airport or City:

Astronomía

Jul. 12, 2018 Salida Puesta
Hora real 5:56 AM -03 5:21 PM -03
Crepúsculo civil 5:33 AM -03 5:44 PM -03
Crepúsculo náutico 5:07 AM -03 6:10 PM -03
Crepúsculo astronómico 4:41 AM -03 6:36 PM -03
Luna 5:11 AM -03 (7/12) 5:00 PM -03 (7/12)
Horas de luz 12h 10m
Horas de luz
11h 25m
Creciente menguante, 0% of the Moon is Illuminated
Jul 12
Creciente menguante
Jul 12
Nueva
Jul 19
Cuarto creciente
Jul 27
Luna llena
Ago 4
Cuarto menguante

Hourly Weather History & Observations

Hora (-03) Temp. Índice de calor Punto de rocío Humedad Presión Visibilidad Wind Dir Velocidad del viento Velocidad de ráfagas Precip Eventos Condiciones
12:00 AM 79 ° F - 70 ° F 68% 30.14 pul 12 mi SE 5.8 mph - -   Nubes dispersas
12:00 AM 78.8 ° F - 69.8 ° F 74% 30.12 pul 6.2 mi SE 5.8 mph - N/A   Muy nublado
1:00 AM 78.8 ° F - 71.6 ° F 78% 30.09 pul 6.2 mi SE 4.6 mph - N/A   Muy nublado
2:00 AM 78.8 ° F - 71.6 ° F 78% 30.09 pul 6.2 mi SE 3.5 mph - N/A   Muy nublado
3:00 AM 78 ° F - 71 ° F 73% 30.08 pul 12 mi SE 4.6 mph - -   Nubes dispersas
3:00 AM 77.0 ° F - 71.6 ° F 83% 30.06 pul 6.2 mi SE 4.6 mph - N/A   Muy nublado
4:00 AM 78.8 ° F - 71.6 ° F 78% 30.06 pul 6.2 mi SE 5.8 mph - N/A   Nubes dispersas
5:00 AM 78.8 ° F - 71.6 ° F 78% 30.06 pul 6.2 mi SE 5.8 mph - N/A   Muy nublado
6:00 AM 74 ° F - 71 ° F 86% 30.10 pul 12 mi Sin viento Sin viento - -   Nubes dispersas
6:00 AM 73.4 ° F - 71.6 ° F 94% 30.09 pul 6.2 mi Sin viento Sin viento - N/A   Muy nublado
7:00 AM 75.2 ° F - 71.6 ° F 89% 30.09 pul 6.2 mi Sin viento Sin viento - N/A   Parcialmente nublado
8:00 AM 80.6 ° F 84.6 ° F 71.6 ° F 74% - 5.0 mi SE 4.6 mph - N/A   Parcialmente nublado
9:00 AM 79 ° F - 73 ° F 76% 30.15 pul 5 mi NE 6.9 mph - -   Muy nublado
9:00 AM 78.8 ° F - 73.4 ° F 83% - 5.0 mi NE 6.9 mph - N/A   Muy nublado
10:00 AM 78.8 ° F - 71.6 ° F 78% 30.15 pul 5.6 mi NE 9.2 mph - N/A   Muy nublado
11:00 AM 80.6 ° F 84.6 ° F 71.6 ° F 74% - 6.2 mi ENE 6.9 mph - N/A   Muy nublado
12:00 PM 80 ° F - 71 ° F 68% 30.13 pul 12 mi Este 4.6 mph - -   Muy nublado
12:00 PM 80.6 ° F 84.6 ° F 71.6 ° F 74% 30.12 pul 6.2 mi Este 4.6 mph - N/A   Muy nublado
1:00 PM 80.6 ° F 84.6 ° F 71.6 ° F 74% 30.09 pul 6.2 mi Este 6.9 mph - N/A   Muy nublado
2:00 PM - - - N/A% 30.06 pul 6.2 mi ESE 8.1 mph - N/A   Muy nublado
3:00 PM 82 ° F - 71 ° F 63% 30.07 pul 12 mi ESE 8.1 mph - -   Muy nublado
3:00 PM - - - N/A% 30.06 pul 6.2 mi ESE 8.1 mph - N/A   Muy nublado
4:00 PM 77.0 ° F - 69.8 ° F 78% - 5.0 mi ENE 10.4 mph - N/A   Muy nublado
5:00 PM 77.0 ° F - 69.8 ° F 78% 30.06 pul 5.6 mi Norte - - N/A   Muy nublado
6:00 PM 78 ° F - 72 ° F 78% 30.09 pul 7 mi Sur 2.3 mph - -   Muy nublado
6:00 PM 78.8 ° F - 71.6 ° F 78% - 6.2 mi Variable 2.3 mph - N/A   Muy nublado
7:00 PM 80.6 ° F 83.9 ° F 69.8 ° F 70% 30.09 pul 6.2 mi ESE 6.9 mph - N/A   Nubes dispersas
8:00 PM 80.6 ° F 84.6 ° F 71.6 ° F 74% 30.09 pul 6.2 mi ESE 6.9 mph - N/A   Nubes dispersas
9:00 PM 76 ° F - 72 ° F 84% 30.14 pul 5 mi Sur 13.8 mph - -   Muy nublado
9:00 PM 77.0 ° F - 71.6 ° F 83% - 5.0 mi Sur 13.8 mph - N/A   Muy nublado
10:00 PM 77.0 ° F - 71.6 ° F 83% 30.12 pul 5.6 mi Sur 4.6 mph - N/A   Muy nublado
11:00 PM 77.0 ° F - 69.8 ° F 78% 30.12 pul 6.2 mi SO 4.6 mph - N/A   Muy nublado